Location: Ernsee
(50.8780°N, 12.0389°E)
Time: 13:21:13
(UTC+00:00)

CENTAUR R/B - Pass Details

Date: 20 January 2020
Orbit: 766 x 1422 km, 63.5° (Epoch: 19 February)

Event Time Altitude Azimuth Distance (km) Brightness Sun altitude
Exits shadow 04:30:10 27° 321° (NW) 2,218 4.0 -23.7°
Maximum altitude 04:35:00 75° 42° (NE) 1,376 3.2 -23.0°
Drops below altitude 10° 04:43:41 10° 128° (SE) 3,495 6.2 -21.6°
Sets 04:46:42 0° 130° (SE) 4,488 6.9 -21.2°
